Theta_e
327 316 308 310 302 298 294 293 297 296 310 318 321 318 313 309 311 309 319 318 317 342 345 346 346 349 351 350 349 349 346 347 345 345 346 345 345 343 341 341 343 347 348 349 348 345 343 342 342
321 310 310 304 296 292 290 291 290 292 297 302 320 318 309 298 302 309 309 312 318 342 344 346 343 347 348 347 347 347 346 347 345 344 344 343 342 341 340 339 341 343 344 348 347 346 343 344 343
315 313 301 293 287 286 287 291 292 294 299 308 317 310 300 295 300 304 309 312 327 327 332 339 339 346 347 348 348 348 347 346 344 342 342 342 340 339 339 338 337 340 338 341 344 344 341 339 338
320 314 305 290 287 289 289 290 292 297 305 302 306 296 299 299 300 305 309 311 313 315 317 321 329 338 346 346 347 347 345 342 342 341 340 339 339 338 339 337 339 339 337 338 342 340 337 336 334
315 308 295 291 290 293 292 292 293 294 298 294 304 300 296 297 301 304 307 308 308 310 312 314 321 325 333 343 346 345 343 343 342 340 339 338 338 337 337 336 336 336 334 333 336 335 333 333 332
303 305 292 287 289 291 293 293 293 291 293 292 296 299 293 297 298 302 306 305 306 307 309 310 313 318 324 331 340 343 344 343 342 340 339 338 338 337 336 335 334 333 333 333 333 333 331 330 330
303 298 292 291 290 289 290 295 289 288 289 288 293 291 294 293 297 302 303 304 304 304 304 306 309 311 316 324 325 334 340 341 341 340 339 338 338 338 337 337 337 334 333 333 333 333 331 330 330
306 301 292 292 288 287 291 292 290 288 285 294 293 285 286 292 296 299 301 299 301 301 301 302 305 308 310 318 320 326 332 335 337 337 334 332 333 333 333 332 333 338 336 336 335 333 331 331 330
311 296 291 290 290 289 294 290 292 293 288 288 289 288 290 292 294 293 295 295 295 297 298 300 302 306 308 313 316 319 323 330 330 332 329 327 336 336 333 330 332 336 336 335 334 333 334 331 327
303 295 293 295 292 289 290 292 292 288 286 286 286 288 289 289 288 288 288 289 290 292 294 296 299 302 305 308 311 313 316 318 322 324 334 334 334 334 333 327 326 330 332 333 336 335 333 326 325
300 292 294 293 294 294 290 287 291 289 283 285 284 285 287 286 286 286 286 287 288 290 291 293 296 299 301 304 306 309 311 313 316 316 312 318 331 332 333 334 333 333 324 334 334 334 333 329 325
292 296 293 292 294 294 290 289 286 287 285 288 288 288 287 286 285 285 285 286 287 288 290 291 293 296 299 301 303 305 307 309 309 309 309 310 311 316 325 331 332 331 332 330 331 331 331 328 325
291 292 293 292 291 290 288 284 285 285 288 288 288 287 286 286 286 286 287 287 287 287 289 290 291 292 295 297 300 302 303 305 305 305 305 306 307 307 310 317 330 331 330 329 328 328 327 326 325
292 291 291 290 288 288 285 285 286 284 287 286 285 285 285 285 285 286 286 286 287 288 288 290 290 292 293 294 296 298 300 301 302 302 302 304 304 304 307 311 316 325 329 330 328 327 326 325 324
292 286 287 286 292 290 292 282 281 286 286 284 284 284 284 285 285 285 286 286 287 288 288 289 290 291 291 291 294 296 297 298 298 300 300 301 302 303 305 307 307 309 313 318 326 326 325 324 323
284 283 280 284 287 289 287 276 283 286 284 282 283 284 284 284 285 286 287 287 287 288 288 289 289 290 290 291 292 293 296 295 296 296 297 298 300 301 302 303 302 303 306 310 318 325 323 323 323
278 275 277 280 283 286 285 277 282 284 283 281 282 282 283 283 284 285 286 287 287 287 287 288 289 289 290 290 291 292 293 294 294 294 294 295 297 298 298 299 299 301 303 305 306 308 315 323 322
275 275 278 276 279 281 279 278 281 282 281 281 281 282 282 282 283 285 286 287 287 287 287 287 288 288 289 289 290 290 291 291 292 292 293 294 295 296 296 296 297 298 299 301 302 303 306 310 323
275 275 274 276 281 278 276 276 278 280 280 279 280 281 281 282 285 285 286 286 286 287 286 286 287 287 288 288 287 287 287 289 289 291 292 292 293 294 295 294 296 296 296 298 299 300 300 306 312
276 276 275 280 282 278 276 275 278 279 278 279 279 279 280 281 282 284 285 285 284 285 285 286 286 287 287 288 288 287 287 288 289 290 291 291 292 292 291 292 292 294 295 296 296 297 297 301 304
273 273 273 277 279 279 277 275 275 278 279 279 279 280 280 280 281 282 283 283 284 284 284 285 286 286 287 287 288 287 288 287 287 287 288 289 290 291 291 291 291 291 293 293 294 296 295 295 299
273 275 276 279 275 271 278 266 274 275 276 277 278 278 279 280 281 282 282 282 283 284 284 285 285 286 287 287 286 285 284 283 285 286 287 288 289 289 289 289 289 289 291 291 293 294 294 295 294
275 277 276 278 274 271 272 270 273 275 274 275 277 278 279 279 280 280 281 282 283 284 284 284 285 285 286 286 286 285 284 285 286 286 286 287 288 288 288 288 288 288 288 289 291 292 292 294 294
277 276 276 274 273 260 267 268 269 272 274 275 276 277 279 279 279 280 281 282 282 282 283 284 284 284 285 285 285 285 284 284 284 284 284 285 286 287 287 287 287 287 287 287 288 291 291 292 293
275 272 259 262 260 263 268 266 270 274 277 276 275 276 278 278 278 278 278 279 280 281 282 283 283 283 284 284 284 284 284 284 284 284 284 284 284 285 285 286 286 286 286 286 287 288 290 291 291
272 268 263 259 261 262 267 263 271 277 277 276 276 276 278 277 277 277 278 279 279 280 281 281 282 282 283 283 283 284 284 284 284 284 284 284 284 284 285 285 285 285 285 285 286 287 288 290 290
269 267 270 255 248 257 264 268 272 276 275 274 275 275 275 276 277 277 278 278 279 280 280 280 281 282 282 282 283 283 284 284 283 284 284 284 284 284 284 284 284 284 284 284 285 285 286 288 289
272 272 264 259 257 257 263 262 266 273 273 274 273 274 275 275 276 277 277 278 279 279 280 280 281 281 282 282 282 283 283 284 284 283 283 283 283 283 283 283 283 283 283 283 283 284 285 286 288
268 267 265 263 261 257 257 266 267 271 276 275 274 275 275 275 276 276 277 278 278 279 279 280 280 281 282 283 282 282 283 283 283 283 282 282 283 282 282 282 281 281 282 282 282 282 283 284 286
270 267 266 261 259 260 261 263 275 274 275 277 277 278 275 276 276 277 277 277 277 278 279 279 280 281 282 282 282 282 283 283 283 282 282 283 282 282 281 281 280 281 281 281 280 281 282 283 284
Wind_Speed
11 5 0 4 3 4 3 4 3 10 5 9 9 16 19 16 7 7 20 24 33 7 5 6 7 9 9 10 10 10 10 10 10 10 10 10 10 9 8 7 5 5 7 12 13 13 12 11 11
5 3 3 3 5 3 2 5 7 4 5 8 9 11 12 9 11 8 15 35 31 7 6 7 7 9 11 11 11 11 10 9 9 9 8 8 7 7 6 6 6 7 6 12 12 13 11 9 9
5 5 5 5 4 3 2 5 11 8 8 2 6 13 8 13 16 12 20 25 19 20 18 12 1 8 9 10 12 11 9 8 7 7 7 6 5 5 5 5 3 3 3 7 9 13 9 7 6
4 6 6 6 8 10 5 12 11 8 6 17 6 14 10 19 15 16 21 21 19 19 19 21 27 26 9 10 10 10 8 6 5 6 5 6 5 4 4 3 4 3 6 3 9 10 5 5 4
5 5 6 4 7 3 10 15 16 15 6 12 9 8 7 15 20 18 18 20 21 17 18 18 28 27 27 3 9 9 8 7 7 5 4 4 5 4 5 5 6 4 3 1 5 3 2 3 2
5 3 5 6 5 16 7 18 10 15 14 9 10 8 7 17 19 18 18 19 18 17 18 19 24 28 26 21 5 7 8 8 7 6 6 5 4 3 3 3 3 2 1 2 1 1 0 1 1
6 3 5 13 7 8 13 8 18 14 15 16 10 7 5 22 20 16 16 15 17 19 21 19 19 22 25 24 25 11 6 6 6 5 4 4 5 4 3 3 3 4 3 3 3 2 1 1 0
4 4 9 7 8 7 12 10 20 19 22 3 9 14 7 18 18 14 13 17 17 24 21 21 19 18 17 15 23 22 16 4 5 5 4 3 2 2 3 4 5 2 3 4 3 3 3 1 0
2 4 7 8 9 7 4 10 14 15 23 28 17 16 12 14 14 15 15 19 24 22 23 20 21 19 17 16 16 19 22 17 10 2 3 3 2 2 3 3 5 5 5 5 5 5 4 1 1
6 5 7 9 13 16 20 14 11 14 20 19 21 18 15 15 17 22 23 21 26 23 23 20 18 18 17 13 15 15 15 12 12 15 10 5 4 4 4 5 6 6 6 7 6 6 5 2 2
6 8 19 21 23 22 22 27 13 5 17 17 17 16 17 19 21 22 20 19 16 19 17 19 18 17 17 15 11 8 8 8 10 16 15 14 8 5 4 3 4 4 4 4 5 5 4 5 4
16 19 16 16 13 12 18 16 22 20 13 14 15 15 14 21 19 20 21 18 20 19 17 20 18 16 17 12 10 11 10 9 11 12 17 13 9 12 10 6 6 5 4 6 6 4 6 6 6
19 17 17 23 23 22 22 21 15 18 13 13 14 16 20 19 19 16 16 17 18 18 18 19 17 17 13 13 10 11 11 11 11 12 15 13 11 11 10 11 7 7 6 6 7 7 7 7 8
15 20 18 20 22 17 24 13 6 12 8 11 13 17 17 19 20 17 18 18 17 16 17 16 17 17 15 13 14 10 11 11 10 10 14 14 11 11 10 11 12 8 7 8 8 8 8 8 7
19 23 17 15 4 5 3 19 13 8 7 12 14 14 15 17 16 17 16 16 15 13 13 17 16 16 15 14 12 9 10 10 9 11 13 16 14 13 12 10 11 11 10 16 7 8 8 9 8
4 6 4 12 9 7 4 6 6 3 7 12 13 13 14 17 16 14 14 15 16 14 16 14 13 16 16 14 10 9 9 10 10 10 10 16 14 15 12 9 11 12 9 10 11 7 8 9 10
9 4 6 4 18 5 6 7 4 4 8 11 11 11 12 12 14 13 13 12 13 13 15 15 15 16 15 13 10 10 10 9 9 9 11 14 13 14 11 10 10 12 10 10 11 11 13 10 9
3 6 8 7 9 19 18 14 7 6 7 8 8 8 9 10 11 10 11 11 12 12 12 13 12 14 13 10 9 8 8 9 9 10 11 15 11 14 12 11 12 12 10 10 11 11 12 13 11
7 10 8 3 2 9 8 9 5 4 5 7 6 6 7 8 6 6 8 9 11 11 12 13 14 14 11 10 10 9 9 8 9 9 13 13 13 14 13 10 11 11 11 12 13 11 12 8 12
7 10 4 2 4 7 4 4 2 2 2 3 4 5 6 5 7 7 8 8 9 10 11 12 12 12 11 8 8 5 6 6 7 8 9 11 13 13 12 11 10 12 9 11 12 12 10 5 8
6 5 2 5 4 6 4 1 3 1 2 2 3 2 3 4 6 7 8 7 7 8 10 10 11 11 10 10 7 6 4 5 7 9 9 10 12 12 12 12 11 11 10 10 12 12 14 9 9
4 3 1 6 3 4 3 3 4 5 4 2 0 2 3 5 5 5 8 8 7 6 6 7 9 9 10 10 9 10 8 7 8 8 9 9 12 12 12 12 12 11 9 10 10 10 10 11 11
3 1 3 3 4 4 5 2 3 3 5 5 5 3 3 4 5 7 7 7 7 6 5 6 7 7 7 7 6 6 8 7 7 7 11 11 10 12 13 12 12 11 8 10 12 12 11 8 9
3 3 5 4 3 5 4 4 4 5 6 4 4 6 5 4 6 7 7 6 6 5 4 5 5 5 6 6 6 7 8 9 8 10 9 9 9 9 11 13 11 11 11 11 10 11 13 11 10
4 5 4 7 7 4 2 2 8 5 6 7 9 8 6 5 5 7 7 7 7 7 5 5 4 6 6 7 6 6 7 7 9 9 7 10 8 9 12 13 13 11 12 12 11 11 11 11 11
4 5 6 4 1 5 4 5 4 2 3 5 5 5 5 6 5 7 7 6 6 7 5 5 5 7 7 7 8 7 6 5 5 7 7 7 7 8 11 11 12 13 14 12 11 9 9 10 10
3 5 3 10 1 4 3 6 3 2 4 5 7 5 7 7 7 8 9 7 6 6 6 5 5 7 7 7 6 7 6 6 7 9 8 6 9 9 11 12 12 12 13 13 13 9 12 11 10
3 5 4 5 3 4 5 6 6 5 9 8 8 8 8 6 8 8 7 7 5 6 6 6 5 6 7 7 6 6 7 6 7 7 9 10 10 11 12 12 12 13 13 13 13 11 12 12 9
2 2 7 6 3 6 1 8 7 7 8 8 9 9 8 7 8 7 7 7 7 6 5 6 6 6 7 6 6 7 7 7 7 7 8 9 11 12 12 13 13 13 13 13 12 13 14 14 14
2 4 3 7 5 1 3 11 4 7 5 6 8 7 6 7 8 7 7 7 7 7 6 6 7 6 8 6 6 8 8 7 8 8 9 9 11 11 12 13 14 14 14 14 14 14 14 14 14
Wind_Direction
327 304 78 55 61 62 51 28 326 8 56 26 52 73 82 43 16 77 323 360 331 239 164 161 154 138 128 125 120 116 109 104 106 107 107 107 105 101 95 86 48 62 137 116 111 107 106 104 104
300 340 42 77 79 74 49 352 350 305 315 311 47 56 45 71 34 337 351 331 313 245 177 165 164 152 144 135 124 105 107 107 108 109 107 104 105 105 102 93 59 37 62 108 115 115 103 100 100
212 40 54 55 64 63 348 10 314 307 338 11 104 50 41 346 345 342 333 327 11 20 17 12 101 148 138 133 120 105 109 110 111 108 106 105 105 101 105 97 67 78 26 59 96 92 96 102 103
44 25 24 59 72 39 33 325 325 325 13 31 65 80 94 41 347 337 333 345 20 19 17 10 21 11 127 114 110 116 121 112 114 110 116 119 115 104 92 75 48 61 78 33 69 76 90 94 96
44 57 77 67 51 57 32 9 23 44 50 14 353 86 69 1 354 342 350 7 17 16 20 17 19 16 11 95 124 129 125 117 110 108 108 115 119 122 122 99 80 40 122 179 42 65 76 81 79
68 93 103 105 105 39 24 21 30 31 22 8 47 87 82 353 358 347 3 15 16 21 24 20 15 14 11 358 340 131 119 121 123 125 126 126 120 126 127 125 134 135 156 187 219 219 101 73 52
89 71 105 118 91 44 24 21 28 35 33 18 330 61 68 360 5 351 12 21 16 27 30 20 14 10 8 7 6 337 133 134 133 130 125 130 137 142 146 158 192 198 212 223 223 215 206 149 85
99 96 111 107 115 79 40 59 49 47 35 81 24 34 10 356 7 3 25 25 22 31 26 20 14 13 9 8 7 5 345 167 156 151 147 143 159 196 205 212 256 215 220 247 240 242 239 228 176
342 87 129 129 127 113 53 80 65 60 67 58 63 56 35 20 19 35 35 30 25 25 21 15 16 11 9 13 6 9 6 8 336 301 199 178 193 226 255 251 259 272 254 249 240 243 255 271 340
29 80 57 91 108 94 63 60 86 61 50 51 47 38 33 28 31 38 33 34 30 19 20 18 14 10 12 14 10 11 10 5 18 12 338 316 282 236 241 257 272 274 263 255 250 248 255 243 270
8 89 101 91 108 97 86 57 47 42 48 35 35 28 24 31 32 39 36 35 37 27 23 18 12 17 12 15 13 12 12 1 8 23 16 6 333 304 279 249 256 259 261 260 261 260 251 247 251
90 64 56 71 66 82 71 82 64 52 53 51 40 34 34 40 34 30 34 28 30 28 13 23 15 12 20 15 13 18 19 12 18 16 16 13 10 4 337 286 267 245 243 249 247 252 254 257 257
67 89 76 83 75 79 87 69 69 54 49 35 59 42 38 39 42 40 37 36 30 26 18 23 13 22 17 23 26 19 26 25 20 20 17 17 8 4 348 336 276 272 262 243 243 244 245 246 249
112 84 69 78 84 75 74 51 74 47 59 49 48 55 56 49 37 35 36 33 29 26 18 16 22 20 13 21 26 20 20 20 27 23 17 17 13 2 353 352 358 331 298 268 260 249 244 243 240
119 100 83 23 46 143 129 40 46 21 49 57 53 52 53 50 42 37 29 31 28 28 19 22 19 15 17 19 22 19 23 25 20 20 18 21 15 3 7 1 3 355 339 326 254 258 260 259 248
43 61 70 24 16 32 70 84 38 341 56 51 46 45 44 44 42 37 30 26 20 22 27 24 21 18 17 16 14 13 17 26 17 19 19 17 14 9 12 3 9 349 349 332 340 273 249 250 249
18 72 25 41 9 114 102 125 143 47 66 62 50 46 46 40 37 32 27 25 22 20 18 21 23 21 16 13 10 13 15 21 19 15 17 10 10 9 11 3 0 342 354 354 349 335 327 251 244
52 96 52 52 5 75 93 113 104 81 79 70 57 49 44 39 29 20 18 15 15 19 22 24 23 22 19 16 8 16 14 17 16 12 12 7 6 3 12 3 1 356 358 358 337 351 332 325 251
96 87 93 47 305 60 70 99 93 75 72 70 57 49 42 34 360 1 10 11 14 16 17 18 18 17 17 16 11 17 12 11 12 9 7 2 1 4 7 2 356 359 359 348 347 348 341 339 354
68 90 70 111 38 87 122 91 110 78 51 63 61 41 33 12 2 359 357 8 10 9 10 14 16 13 18 13 8 8 350 359 8 1 1 359 1 1 3 1 353 357 348 349 354 353 342 319 352
35 85 125 124 106 63 130 152 189 176 130 78 41 18 11 0 353 350 353 355 355 4 2 5 5 8 13 7 5 7 3 2 4 3 356 354 357 358 359 359 352 351 349 349 348 350 349 329 322
72 352 135 116 84 145 17 264 252 194 200 186 303 348 333 345 341 335 345 343 340 336 344 355 359 0 7 360 8 13 9 3 353 341 342 345 353 353 354 354 351 349 343 344 340 340 334 333 327
90 134 95 89 88 86 345 67 260 137 234 223 227 248 301 316 320 324 330 326 323 323 334 338 348 352 351 353 1 2 2 350 339 341 342 346 345 347 347 349 346 343 340 335 332 332 331 328 319
120 93 48 56 74 37 255 121 258 193 204 186 211 227 232 285 325 318 311 311 308 317 317 328 337 321 333 343 346 358 353 344 344 346 343 343 338 338 342 341 340 335 333 332 326 321 322 320 318
59 58 356 5 14 212 345 48 242 228 217 193 192 217 233 261 294 302 307 313 312 319 308 311 328 315 323 337 342 342 334 334 336 336 335 332 332 333 333 333 333 330 326 324 322 317 314 319 318
48 130 143 191 261 270 334 242 251 246 199 206 197 205 233 271 280 296 295 296 296 303 295 310 314 313 322 324 326 327 323 325 321 324 320 317 320 319 318 320 319 320 320 320 318 313 309 310 311
268 50 155 104 74 40 265 283 278 161 215 223 227 243 254 269 291 302 306 306 304 307 290 288 295 293 299 297 300 305 307 320 320 322 321 318 314 315 318 315 315 314 314 315 315 309 306 306 306
90 143 63 6 63 315 293 279 243 215 225 227 239 239 250 266 300 299 305 307 301 288 283 289 270 267 282 289 286 285 287 289 293 298 306 313 313 317 316 315 314 311 311 312 313 308 305 301 299
19 30 50 106 102 156 270 272 209 209 211 217 234 237 240 254 285 283 291 290 284 288 275 280 285 280 288 294 296 294 290 290 290 290 293 298 306 311 310 312 310 309 309 309 307 303 301 302 299
187 189 132 115 260 72 128 272 221 214 215 215 236 231 232 249 268 279 285 290 294 287 277 267 272 270 273 278 278 281 284 285 287 291 296 300 302 305 305 306 303 304 305 305 304 302 299 299 295